Terminal Aerodrome Forecast
Issued by NWS

Home | Current Version | Previous Version | Text Only | Print | Product List | Glossary Off
Versions: 1 2 3 4 5 6 7 8 9 10 11 12 13 14 15 16

000
FTUS43 KMPX 231600 AAA
TAFRWF
TAF AMD
KRWF 231630Z 2317/2412 35013G20KT 5SM -SN BR OVC010
     FM240400 33014G20KT 4SM BR OVC006=

USA.gov is the U.S. government's official web portal to all federal, state and local government web resources and services.